RH
100 100 100 100 100 100 96 84 77 77 75 69 75 85 93 97 94 91 84 87 98 99 97 100 99 100 100
100 100 100 99 98 100 97 86 82 80 77 71 72 80 88 88 90 90 94 96 99 100 98 95 94 100 99
100 100 100 99 99 97 86 87 85 85 82 76 67 67 70 76 78 84 87 90 84 93 97 85 83 90 89
97 100 100 100 99 94 91 88 84 80 74 52 28 20 22 39 60 70 78 81 82 82 79 77 74 86 93
100 100 100 100 97 88 88 82 66 42 20 15 16 14 13 12 12 14 22 48 65 72 74 75 75 74 74
99 99 100 99 76 69 64 44 24 15 13 14 13 10 10 10 10 9 8 8 8 10 11 11 11 12 13
90 92 83 64 57 55 41 28 17 13 13 14 12 12 14 15 17 19 20 21 19 16 14 14 14 13 12
23 29 36 37 37 28 25 18 16 14 14 16 15 20 24 26 26 29 30 30 31 32 32 33 32 31 30
13 14 16 18 18 18 14 14 12 12 17 21 23 27 29 32 33 37 38 39 39 39 41 41 41 41 42
17 13 12 13 12 12 12 11 10 11 18 26 32 32 33 38 40 42 41 39 38 38 39 40 40 40 42
20 17 15 14 13 14 13 13 14 21 33 38 34 34 34 38 42 42 37 37 38 41 41 41 41 40 40
17 15 14 15 16 15 17 21 27 30 34 36 37 38 36 35 35 34 38 41 42 40 38 38 39 40 42
14 14 15 16 15 16 19 27 33 36 37 38 38 37 38 36 34 34 35 37 37 37 37 40 46 51 49
14 14 14 15 15 15 19 27 32 36 39 38 36 35 34 32 31 31 33 36 39 44 43 40 42 45 46
17 17 17 17 18 17 18 23 24 29 31 31 30 29 28 28 28 31 34 39 49 48 44 34 34 40 43
21 21 17 16 16 15 16 18 20 22 24 26 26 26 25 26 30 34 43 49 53 47 45 41 27 31 36
22 19 19 18 18 17 17 18 18 20 22 22 23 24 26 29 36 48 56 58 56 56 54 50 37 30 39
Wind_Speed
17 18 19 15 18 17 17 16 12 10 8 6 4 7 9 9 7 6 6 5 7 10 12 11 9 8 17
23 21 19 18 18 18 16 14 11 10 9 8 6 7 9 10 10 10 9 6 5 8 12 13 12 12 14
20 19 18 18 19 18 14 12 11 11 11 10 9 9 9 10 10 13 13 13 12 12 12 14 16 15 16
17 17 18 17 18 14 12 12 11 11 12 12 10 9 11 12 11 11 12 15 17 19 20 19 20 19 21
13 14 16 17 15 12 13 12 12 12 11 11 11 9 10 11 12 12 13 14 15 15 16 17 17 19 19
13 14 14 14 11 10 11 10 10 11 10 10 9 7 7 6 6 7 8 10 13 14 14 15 16 16 17
13 15 14 11 11 11 11 10 10 10 8 8 6 5 4 4 4 4 4 4 4 5 6 6 7 8 9
10 11 12 11 12 11 11 9 8 7 7 6 6 5 5 5 5 6 5 5 4 4 4 5 6 7 8
9 10 10 10 11 10 9 8 7 7 7 6 7 6 6 6 7 6 6 5 5 6 6 7 8 9 10
7 6 7 8 7 7 8 7 7 7 8 8 7 6 5 8 8 8 8 8 8 9 9 9 11 12 13
7 7 7 7 7 6 7 7 8 8 6 8 8 8 7 5 8 10 10 10 11 10 12 14 15 16 16
7 7 7 7 7 8 8 8 8 9 10 10 11 10 10 10 10 9 9 10 13 15 15 17 19 19 19
8 8 8 9 9 9 10 10 10 11 11 11 12 12 12 12 13 11 11 12 15 16 17 18 17 18 22
9 10 10 10 11 12 12 12 12 13 12 13 14 14 14 15 17 14 12 12 12 16 20 22 23 23 22
11 13 11 13 13 14 14 14 13 14 14 15 16 16 17 17 19 17 17 18 16 18 21 21 21 21 21
13 13 13 14 14 16 16 17 16 15 16 17 19 19 19 19 19 19 18 17 19 20 19 21 23 20 20
16 15 15 16 17 17 17 18 18 16 16 17 18 19 21 22 20 21 19 15 16 19 22 23 25 23 22
Wind_Direction
265 262 256 254 268 271 280 285 274 265 268 280 260 219 215 229 236 254 266 221 207 196 200 214 199 200 214
267 258 254 256 260 272 277 269 263 264 267 270 268 262 249 234 232 233 239 236 207 217 221 232 228 228 231
252 249 249 252 260 268 259 250 252 255 260 264 264 262 259 260 247 241 238 236 237 233 237 231 235 233 239
240 240 246 251 258 261 239 243 249 258 264 267 265 258 257 255 252 248 244 242 243 242 246 246 243 245 246
242 241 241 248 255 252 237 237 245 252 258 264 267 263 260 257 253 251 247 248 248 250 251 251 253 255 257
240 241 244 253 260 245 242 246 254 257 253 260 258 253 248 244 245 246 248 249 249 252 255 257 259 258 258
237 244 250 251 248 245 253 255 253 254 258 257 241 237 232 222 223 229 230 239 230 227 237 248 252 256 258
241 241 244 243 244 249 253 253 251 247 242 239 221 224 233 238 225 225 223 223 218 214 231 246 252 257 260
245 243 242 244 245 247 249 247 247 234 219 223 220 226 240 236 230 225 222 212 236 255 262 266 267 266 265
242 241 241 243 243 239 239 233 232 229 223 225 218 222 232 225 222 215 244 264 265 268 268 271 274 274 274
246 246 244 244 242 237 233 227 219 224 225 220 235 230 237 236 224 241 261 261 262 263 277 279 276 277 276
247 246 245 243 240 240 238 239 242 244 243 247 253 250 247 246 251 253 256 257 262 271 273 272 273 274 276
242 242 246 244 246 249 251 250 250 252 253 252 254 257 259 262 266 260 264 271 275 277 268 264 265 267 274
241 243 247 250 250 252 254 254 255 257 255 254 257 261 265 271 274 277 282 281 280 281 274 275 275 279 278
243 249 247 250 252 254 254 255 252 253 256 260 263 265 270 276 280 286 288 284 286 280 277 279 278 276 275
248 255 255 253 254 256 255 256 257 252 254 260 268 277 280 279 284 289 288 289 287 286 286 288 285 281 278
249 254 258 260 260 258 256 256 257 257 255 257 262 270 278 283 285 289 290 287 286 287 287 290 289 290 288